{"data":{"norad_id":64503,"intl_designator":"2025-134D","name":"KUIPER-00042","alt_names":[],"object_type":"PAYLOAD","status":"ACTIVE","operator":null,"country":"US","launch_date":"2025-06-23","launch_site_code":"AFETR","launch_vehicle":null,"mission":null,"orbit_class":"UNKNOWN","rcs_meters":null,"size_class":null,"mass_kg":null,"dimensions":null,"purposes":[],"wikipedia_slug":null,"has_3d_model":false,"image_url":null,"decayed_at":null,"tle_current":{"epoch":"2026-09-21T19:55:22.272096Z","epoch_age_seconds":66353,"freshness":"FRESH","line1":"1 64503U 25134D   26264.83011889  .00001734  00000+0  25640-3 0  9995","line2":"2 64503  51.8998  93.2117 0000750 120.3737 239.7299 14.79941890 69017","mean_motion":14.7994189,"eccentricity":7.5e-5,"inclination_deg":51.8998,"raan_deg":93.2117,"arg_perigee_deg":120.3737,"mean_anomaly_deg":239.7299,"bstar":0.0002564,"rev_number":6901,"period_min":97.301117681046,"perigee_km":628.98199244599,"apogee_km":630.03313913086,"semimajor_km":7007.6445657884,"source":"CELESTRAK","updated_at":"2026-09-22T09:00:29.806293Z"}}}